Location: Newark
(48.0000°N, 67.0000°E)
Time: 18:45:35
(UTC+00:00)

Explorer 7 - All Passes

Search period start: 16 February 2020 00:00
Search period end: 26 February 2020 00:00
Orbit: 485 x 679 km, 50.3° (Epoch: 16 February)

Date Brightness Start Highest point End Pass type
(mag) Time Alt. Az. Time Alt. Az. Time Alt. Az.
16 Feb - 09:32:10 10° SSW 09:36:07 31° SE 09:39:52 10° E daylight
16 Feb - 11:12:03 10° WSW 11:16:25 87° NNW 11:20:31 10° ENE daylight
16 Feb - 12:53:00 10° W 12:57:09 62° N 13:01:04 10° E daylight
16 Feb - 14:33:45 10° WNW 14:37:47 74° SSW 14:41:37 10° ESE visible
16 Feb - 16:15:00 10° W 16:17:45 19° SW 16:20:28 10° S visible
17 Feb - 07:59:53 10° SSE 08:01:05 11° SE 08:02:16 10° ESE daylight
17 Feb - 09:36:38 10° SW 09:40:54 44° SSE 09:44:57 10° ENE daylight
17 Feb - 11:17:02 10° W 11:21:23 73° NNW 11:25:28 10° ENE daylight
17 Feb - 12:57:59 10° WNW 13:02:09 66° N 13:06:04 10° E daylight
17 Feb - 14:38:43 10° WNW 14:42:39 53° SSW 14:46:23 10° SE visible
17 Feb - 16:20:52 10° WSW 16:22:24 12° SW 16:23:54 10° SSW visible
18 Feb - 08:02:46 10° S 08:05:44 17° SE 08:08:36 10° E daylight
18 Feb - 09:41:19 10° SW 09:45:45 61° SSE 09:49:55 10° ENE daylight
18 Feb - 11:22:02 10° W 11:26:21 65° N 11:30:24 10° ENE daylight
18 Feb - 13:02:56 10° WNW 13:07:07 76° NNE 13:11:03 10° E daylight
18 Feb - 14:43:44 10° WNW 14:47:27 37° SSW 14:51:01 10° SE visible
19 Feb - 08:06:40 10° SSW 08:10:26 25° SE 08:14:02 10° E daylight
19 Feb - 09:46:08 10° WSW 09:50:38 81° SSE 09:54:52 10° ENE daylight
19 Feb - 11:27:03 10° W 11:31:21 62° N 11:35:23 10° E daylight
19 Feb - 13:07:53 10° WNW 13:12:04 88° SSW 13:16:00 10° ESE daylight
19 Feb - 14:48:52 10° W 14:52:12 25° SW 14:55:24 10° SSE visible
20 Feb - 08:10:58 10° SSW 08:15:11 36° SE 08:19:12 10° E daylight
20 Feb - 09:51:04 10° WSW 09:55:34 83° NNW 09:59:47 10° ENE daylight
20 Feb - 11:32:03 10° WNW 11:36:21 63° N 11:40:23 10° E daylight
20 Feb - 13:12:49 10° WNW 13:16:58 68° SSW 13:20:52 10° ESE daylight
20 Feb - 14:54:16 10° W 14:56:52 17° SW 14:59:24 10° S visible
21 Feb - 06:37:52 10° SSE 06:40:06 13° SE 06:42:17 10° ESE daylight
21 Feb - 08:15:31 10° SW 08:20:00 50° SSE 08:24:13 10° ENE daylight
21 Feb - 09:56:02 10° W 10:00:32 71° N 10:04:44 10° ENE daylight
21 Feb - 11:37:02 10° WNW 11:41:20 69° N 11:45:23 10° E daylight
21 Feb - 13:17:48 10° WNW 13:21:49 49° SSW 13:25:36 10° SE daylight
21 Feb - 15:00:34 10° WSW 15:01:29 11° SW 15:02:23 10° SW visible
22 Feb - 06:41:19 10° S 06:44:45 20° SE 06:48:04 10° E daylight
22 Feb - 08:20:15 10° WSW 08:24:51 68° SSE 08:29:11 10° ENE daylight
22 Feb - 10:01:03 10° W 10:05:31 65° N 10:09:42 10° ENE daylight
22 Feb - 11:41:59 10° WNW 11:46:18 80° NNE 11:50:21 10° ESE daylight
22 Feb - 13:22:50 10° W 13:26:36 34° SW 13:30:09 10° SSE daylight
23 Feb - 06:45:24 10° SSW 06:49:28 29° SE 06:53:22 10° E daylight
23 Feb - 08:25:06 10° WSW 08:29:45 86° SSE 08:34:07 10° ENE daylight
23 Feb - 10:06:04 10° W 10:10:31 63° N 10:14:41 10° E daylight
23 Feb - 11:46:55 10° WNW 11:51:14 82° SSW 11:55:16 10° ESE daylight
23 Feb - 13:28:01 10° W 13:31:19 23° SW 13:34:28 10° SSE daylight
24 Feb - 06:49:48 10° SW 06:54:14 41° SSE 06:58:28 10° ENE daylight
24 Feb - 08:30:03 10° WSW 08:34:42 79° NNW 08:39:03 10° ENE daylight
24 Feb - 10:11:03 10° WNW 10:15:31 65° N 10:19:40 10° E daylight
24 Feb - 11:51:51 10° WNW 11:56:07 62° SSW 12:00:06 10° SE daylight
24 Feb - 13:33:31 10° W 13:35:58 15° SW 13:38:19 10° S visible
25 Feb - 05:16:13 10° S 05:19:05 16° SE 05:21:53 10° E daylight
25 Feb - 06:54:25 10° SW 06:59:03 56° SSE 07:03:28 10° ENE daylight
25 Feb - 08:35:03 10° W 08:39:40 69° N 08:44:00 10° ENE daylight
25 Feb - 10:16:02 10° WNW 10:20:30 73° NNE 10:24:39 10° E daylight
25 Feb - 11:56:51 10° WNW 12:00:57 44° SSW 12:04:47 10° SE daylight
